Regional Weather Roundup
Issued by NWS

Home | Current Version | Previous Version | Text Only | Print | Product List | Glossary On
Versions: 1 2 3 4 5 6 7 8 9 10 11 12 13 14 15 16 17 18 19 20 21 22 23 24 25 26 27 28 29 30 31 32 33 34 35 36 37 38 39 40 41 42 43 44 45 46 47 48 49 50
012
ASCA44 KEWX 310720
RWRMX

LATIN AMERICA AND CARIBBEAN REGIONAL WEATHER ROUNDUP
NATIONAL WEATHER SERVICE AUSTIN/SAN ANTONIO TX
200 AM CDT SUN JUL 31 2016

NOTE: "FAIR" INDICATED FEW OR NO CLOUDS BELOW 12,000 FEET WITH NO
SIGNIFICANT WEATHER AND/OR OBSTRUCTIONS TO VISIBILITY.

BAJA CALIFORNIA

CITY           SKY/WX    TMP DP  RH WIND       PRES   REMARKS
MEXICALI       CLEAR     82  72  69 E9        29.78R
S.J. DEL CABO    N/A    N/A N/A N/A MISG        N/A
TIJUANA        CLEAR     70  61  73 NW7       29.93S

NORTHWESTERN MEXICO

CITY           SKY/WX    TMP DP  RH WIND       PRES   REMARKS
HERMOSILLO     MOCLDY    82  77  83 CALM      29.92S HX  91

NORTHEASTERN MEXICO

CITY           SKY/WX    TMP DP  RH WIND       PRES   REMARKS
MONCLOVA         N/A    N/A N/A N/A MISG        N/A
MONTERREY      CLEAR     81  66  61 E5        29.97R
REYNOSA          N/A    N/A N/A N/A MISG        N/A
CD. VICTORIA     N/A    N/A N/A N/A MISG        N/A

WESTERN MEXICO

CITY           SKY/WX    TMP DP  RH WIND       PRES   REMARKS
AGUASCALIENTES   N/A    N/A N/A N/A MISG        N/A
COLIMA           N/A    N/A N/A N/A MISG        N/A
GUADALAJARA    CLOUDY    63  61  94 CALM      30.21F
MAZATLAN         N/A    N/A N/A N/A MISG        N/A
P. VALLARTA    CLOUDY    75  75 100 NE8       29.91F
URUAPAN          N/A    N/A N/A N/A MISG        N/A
ZACATECAS      CLEAR     57  52  82 CALM      30.32F

CENTRAL MEXICO

CITY           SKY/WX    TMP DP  RH WIND       PRES   REMARKS
CUERNAVACA       N/A    N/A N/A N/A MISG        N/A
MEXICO CITY    PTCLDY    59  52  77 NW7       30.33F
MORELIA        MOCLDY    59  59 100 CALM      30.25S
POZA RICA        N/A    N/A N/A N/A MISG        N/A
S. LUIS POTOSI CLOUDY    63  52  67 SE6       30.30S
TOLUCA         MOCLDY    52  50  93 E3        30.40F

SOUTHERN MEXICO

CITY           SKY/WX    TMP DP  RH WIND       PRES   REMARKS
ACAPULCO       CLOUDY    77  75  94 NE2       29.90F
B. DE HUATULCO   N/A    N/A N/A N/A MISG        N/A
P. ESCONDIDO     N/A    N/A N/A N/A MISG        N/A
VERACRUZ         N/A    N/A N/A N/A MISG        N/A

YUCATAN PENINSULA

CITY           SKY/WX    TMP DP  RH WIND       PRES   REMARKS
CAMPECHE         N/A    N/A N/A N/A MISG        N/A
CANCUN         PTCLDY    81  77  89 E6        29.99F
CHETUMAL         N/A    N/A N/A N/A MISG        N/A
CD. DEL CARMEN   N/A    N/A N/A N/A MISG        N/A
COZUMEL        PTCLDY    73  73 100 CALM      29.99F
MERIDA         PTCLDY    77  72  83 E5        30.00F
MINATITLAN       N/A    N/A N/A N/A MISG        N/A
TAPACHULA      MOCLDY    77  75  94 CALM      29.85F

CENTRAL AMERICA

CITY           SKY/WX    TMP DP  RH WIND       PRES   REMARKS
MANAGUA        MOSUNNY   79  72  78 E5        29.83F

CARIBBEAN

CITY           SKY/WX    TMP DP  RH WIND       PRES   REMARKS
CURACAO        PTCLDY    81  75  83 E7        29.86F
KINGSTON       PTCLDY    82  72  69 N8        29.92F
NASSAU         PTCLDY    84  77  79 NE5       30.07F HX  94
SAN JUAN       PTCLDY    82  79  89 E17       29.95S HX  93
SANTO DOMINGO  TSTM      75  73  94 MISG      29.97R
ST. CROIX      MOCLDY    81  79  94 NE13      29.91
ST. MAARTEN    MOCLDY    82  79  89 E16G29    29.89S HX  93
ST. THOMAS     MOCLDY    82  79  89 NE18G25   29.91F HX  93

$$





USA.gov is the U.S. government's official web portal to all federal, state and local government web resources and services.